Regional Weather Roundup
Issued by NWS Cleveland, OH

Home | Current Version | Previous Version | Graphics & Text | Print | Product List | Glossary On
Versions: 1 2 3 4 5 6 7 8 9 10 11 12 13 14 15 16 17 18 19 20 21 22 23 24 25 26 27 28 29 30 31 32 33 34 35 36 37 38 39 40 41 42 43 44 45 46 47 48 49 50
000
ASUS41 KCLE 012000
RWRCLE
OHIO REGIONAL WEATHER ROUNDUP
NATIONAL WEATHER SERVICE WILMINGTON, OH
400 PM EDT TUE SEP 01 2015

NOTE: "FAIR" INDICATES FEW OR NO CLOUDS BELOW 12,000 FEET WITH NO
SIGNIFICANT WEATHER AND/OR OBSTRUCTIONS TO VISIBILITY.

OHZ001>008-015>018-024>027-034-035-043-044-012100-
   NORTHWEST OHIO

CITY           SKY/WX    TMP DP  RH WIND       PRES   REMARKS
DEFIANCE       MOSUNNY   87  67  51 SW7       30.06F HX  90
FINDLAY        MOSUNNY   87  67  51 W8        30.06F HX  90
TOLEDO EXPRESS MOSUNNY   87  66  49 SW8       30.05F
TOLEDO EXEC    MOSUNNY   88  64  44 W10       30.06F
LIMA           MOSUNNY   85  67  54 CALM      30.08F
$$

OHZ009>014-019>023-028>033-038-089-012100-
   NORTHEAST OHIO

CITY           SKY/WX    TMP DP  RH WIND       PRES   REMARKS
CLE-HOPKINS    MOSUNNY   86  68  54 N9        30.09F
CLE-LAKEFRONT  SUNNY     82  71  69 N7        30.06F
CUY CO. ARPT   MOSUNNY   86  68  54 N12       30.09F
LORAIN-ELYRIA  MOSUNNY   86  70  58 VRB3      30.08F HX  90
ASHTABULA      SUNNY     83  68  60 W6        30.10F
AKRON-CANTON   MOSUNNY   90  64  42 W9        30.08F HX  91
WOOSTER        NOT AVBL
MANSFIELD      MOSUNNY   86  66  51 W6        30.10F
YOUNGSTOWN     MOSUNNY   88  63  43 VRB5      30.09F
$$

OHZ042-051>053-060>062-070>072-077>081-012100-
  SOUTHWEST OHIO

CITY           SKY/WX    TMP DP  RH WIND       PRES   REMARKS
CINC-COVINGTON MOSUNNY   88  64  44 VRB6      30.11F
CINC-LUNKEN    MOSUNNY   87  66  49 S12       30.09F
HAMILTON       MOSUNNY   89  66  46 VRB3      30.10F HX  91
DAYTON         NOT AVBL
WRIGHT-PAT AFB NOT AVBL
DAYTON GENERAL PTSUNNY   85  67  54 S7        30.10F
WILMINGTON     MOSUNNY   86  64  47 SW6       30.11F
$$

OHZ036-037-039>041-045>050-054>059-063>069-073>076-082>088-012100-
  CENTRAL AND SOUTHEAST OHIO

CITY           SKY/WX    TMP DP  RH WIND       PRES   REMARKS
COLUMBUS       PTSUNNY   86  66  51 W5        30.08F
OSU AIRPORT    PTSUNNY   87  66  49 SW5       30.09F
BOLTON FIELD   MOSUNNY   88  68  51 W6        30.10F HX  91
RICKENBACK AFB NOT AVBL
NEWARK         MOSUNNY   88  67  49 NW6       30.08F HX  91
MARION         MOSUNNY   86  65  49 W9        30.09F
LANCASTER      PTSUNNY   87  66  49 W9        30.09F
ZANESVILLE     SUNNY     87  61  41 SW5       30.09F
NEW PHILLY     MOSUNNY   88  66  48 NW5       30.09F HX  90
$$


USA.gov is the U.S. government's official web portal to all federal, state and local government web resources and services.